CQ0XBF-11 Weather Reports


time (UTC)temp
C
wind
direction
speed
KPH
gust
KPH
rain 1hr
cm
rain 24hr
cm
rain mn
cm
humidity
%
barometer
mb
20180221230015 11 274 1.6 8.0 0.00 0.00 0.00 45 1006.8
20180221225813 11 309 4.8 9.7 0.00 0.00 0.00 45 1006.8
20180221225612 11 182 0.0 9.7 0.00 0.00 0.00 44 1006.8
20180221225410 11 77 4.8 11.3 0.00 0.00 0.00 45 1006.8
20180221225209 11 95 6.4 11.3 0.00 0.00 0.00 45 1006.9
20180221225007 11 116 4.8 11.3 0.00 0.00 0.00 45 1006.9
20180221224806 11 90 6.4 9.7 0.00 0.00 0.00 44 1007.0
20180221224604 11 88 4.8 9.7 0.00 0.00 0.00 45 1006.9
20180221224402 11 84 4.8 8.0 0.00 0.00 0.00 45 1006.9
20180221224201 11 102 1.6 8.0 0.00 0.00 0.00 45 1006.9
20180221223959 11 99 3.2 8.0 0.00 0.00 0.00 45 1006.9
20180221223758 11 127 4.8 8.0 0.00 0.00 0.00 45 1006.9
20180221223556 11 157 0.0 8.0 0.00 0.00 0.00 45 1006.9
20180221223354 11 146 1.6 9.7 0.00 0.00 0.00 45 1007.0
20180221223153 11 102 3.2 9.7 0.00 0.00 0.00 45 1006.9
20180221222951 11 30 3.2 9.7 0.00 0.00 0.00 44 1006.9
20180221222750 11 91 9.7 9.7 0.00 0.00 0.00 44 1006.9
20180221222548 12 16 1.6 9.7 0.00 0.00 0.00 43 1006.9
20180221222347 12 60 4.8 8.0 0.00 0.00 0.00 43 1006.9
20180221222145 12 106 8.0 8.0 0.00 0.00 0.00 43 1006.8
20180221221944 12 56 1.6 6.4 0.00 0.00 0.00 43 1006.9
20180221221742 12 109 3.2 6.4 0.00 0.00 0.00 42 1006.8
20180221221541 12 77 3.2 6.4 0.00 0.00 0.00 42 1006.8
20180221221339 12 42 0.0 3.2 0.00 0.00 0.00 42 1006.7
20180221221138 12 105 4.8 3.2 0.00 0.00 0.00 42 1006.7
20180221220936 12 81 1.6 4.8 0.00 0.00 0.00 42 1006.8
20180221220734 12 178 0.0 4.8 0.00 0.00 0.00 42 1006.8
20180221220533 12 82 0.0 4.8 0.00 0.00 0.00 42 1006.8
20180221220331 12 135 0.0 1.6 0.00 0.00 0.00 42 1006.8
20180221220130 12 135 0.0 1.6 0.00 0.00 0.00 41 1006.7
20180221215929 12 191 0.0 3.2 0.00 0.00 0.00 41 1006.7
20180221215727 12 217 0.0 3.2 0.00 0.00 0.00 41 1006.8
20180221215525 12 203 0.0 3.2 0.00 0.00 0.00 41 1006.7
20180221215323 12 215 0.0 6.4 0.00 0.00 0.00 41 1006.7
20180221215122 12 282 0.0 6.4 0.00 0.00 0.00 40 1006.7
20180221214920 12 212 1.6 1.6 0.00 0.00 0.00 40 1006.7
20180221214719 12 111 0.0 1.6 0.00 0.00 0.00 40 1006.8
20180221214518 13 84 1.6 1.6 0.00 0.00 0.00 40 1006.8
20180221214316 13 84 0.0 3.2 0.00 0.00 0.00 40 1006.8
20180221214114 13 74 0.0 3.2 0.00 0.00 0.00 40 1006.8
20180221213912 13 75 0.0 3.2 0.00 0.00 0.00 40 1006.9
20180221213711 13 75 0.0 3.2 0.00 0.00 0.00 40 1006.8
20180221213510 13 75 0.0 3.2 0.00 0.00 0.00 40 1006.8
20180221213308 13 209 0.0 3.2 0.00 0.00 0.00 40 1006.7
20180221213106 13 222 0.0 3.2 0.00 0.00 0.00 40 1006.7
20180221212904 13 210 0.0 3.2 0.00 0.00 0.00 40 1006.7
20180221212703 13 275 0.0 3.2 0.00 0.00 0.00 39 1006.7
20180221212501 13 209 0.0 3.2 0.00 0.00 0.00 39 1006.7
20180221212300 13 212 0.0 4.8 0.00 0.00 0.00 39 1006.7
20180221212058 13 244 1.6 4.8 0.00 0.00 0.00 39 1006.6
20180221211857 13 136 4.8 4.8 0.00 0.00 0.00 38 1006.6
20180221211655 13 270 0.0 4.8 0.00 0.00 0.00 38 1006.6
20180221211454 13 112 1.6 4.8 0.00 0.00 0.00 38 1006.7
20180221211252 13 42 1.6 8.0 0.00 0.00 0.00 37 1006.6
20180221211051 14 15 0.0 8.0 0.00 0.00 0.00 37 1006.6
20180221210849 13 56 3.2 4.8 0.00 0.00 0.00 37 1006.6
20180221210648 13 35 3.2 4.8 0.00 0.00 0.00 37 1006.6
20180221210446 13 66 1.6 4.8 0.00 0.00 0.00 37 1006.6
20180221210244 14 87 0.0 4.8 0.00 0.00 0.00 37 1006.6
20180221210043 14 146 1.6 4.8 0.00 0.00 0.00 37 1006.6
20180221205841 14 95 4.8 4.8 0.00 0.00 0.00 37 1006.6
20180221205640 14 156 0.0 4.8 0.00 0.00 0.00 37 1006.6
20180221205438 14 234 0.0 4.8 0.00 0.00 0.00 37 1006.7
20180221205236 14 95 0.0 4.8 0.00 0.00 0.00 36 1006.6
20180221205035 14 264 0.0 4.8 0.00 0.00 0.00 36 1006.6
20180221204833 14 300 1.6 4.8 0.00 0.00 0.00 36 1006.6
20180221204632 14 92 4.8 4.8 0.00 0.00 0.00 36 1006.6
20180221204430 14 275 3.2 6.4 0.00 0.00 0.00 36 1006.5
20180221204230 14 82 4.8 6.4 0.00 0.00 0.00 36 1006.4
20180221204027 14 49 0.0 6.4 0.00 0.00 0.00 36 1006.5
20180221203826 14 90 0.0 4.8 0.00 0.00 0.00 36 1006.5
20180221203624 14 208 0.0 4.8 0.00 0.00 0.00 36 1006.5
20180221203423 14 113 1.6 6.4 0.00 0.00 0.00 36 1006.4
20180221203221 14 104 0.0 6.4 0.00 0.00 0.00 36 1006.4
20180221203020 14 233 1.6 6.4 0.00 0.00 0.00 36 1006.4
20180221202819 14 253 1.6 6.4 0.00 0.00 0.00 36 1006.4
20180221202617 14 278 3.2 6.4 0.00 0.00 0.00 35 1006.3
20180221202415 14 113 3.2 11.3 0.00 0.00 0.00 35 1006.3
20180221202213 14 88 3.2 11.3 0.00 0.00 0.00 35 1006.3
20180221202010 15 53 1.6 11.3 0.00 0.00 0.00 35 1006.3
20180221201809 15 49 4.8 11.3 0.00 0.00 0.00 34 1006.3
20180221201607 15 137 3.2 11.3 0.00 0.00 0.00 34 1006.3
20180221201406 15 106 1.6 6.4 0.00 0.00 0.00 34 1006.2
20180221201204 15 77 3.2 6.4 0.00 0.00 0.00 34 1006.3
20180221201003 15 261 0.0 6.4 0.00 0.00 0.00 34 1006.2
20180221200802 15 244 0.0 6.4 0.00 0.00 0.00 34 1006.3
20180221200600 15 203 1.6 6.4 0.00 0.00 0.00 34 1006.2
20180221200358 15 61 0.0 8.0 0.00 0.00 0.00 34 1006.3
20180221200157 15 185 0.0 8.0 0.00 0.00 0.00 34 1006.3
20180221195955 15 125 4.8 8.0 0.00 0.00 0.00 34 1006.2
20180221195754 15 264 1.6 8.0 0.00 0.00 0.00 33 1006.3
20180221195552 15 118 0.0 8.0 0.00 0.00 0.00 33 1006.3
20180221195350 15 324 4.8 8.0 0.00 0.00 0.00 33 1006.2
20180221195149 15 52 1.6 8.0 0.00 0.00 0.00 32 1006.2
20180221194947 15 168 0.0 4.8 0.00 0.00 0.00 32 1006.2
20180221194745 15 168 0.0 4.8 0.00 0.00 0.00 32 1006.2
20180221194544 15 22 3.2 4.8 0.00 0.00 0.00 33 1006.3
20180221194342 15 261 3.2 6.4 0.00 0.00 0.00 33 1006.3
20180221194141 16 167 0.0 6.4 0.00 0.00 0.00 32 1006.2
20180221193939 16 220 1.6 6.4 0.00 0.00 0.00 33 1006.2
20180221193738 16 271 0.0 6.4 0.00 0.00 0.00 33 1006.2
20180221193536 16 307 3.2 6.4 0.00 0.00 0.00 33 1006.3
20180221193335 16 264 0.0 6.4 0.00 0.00 0.00 33 1006.3
20180221193133 16 123 3.2 6.4 0.00 0.00 0.00 33 1006.3
20180221192932 16 81 3.2 4.8 0.00 0.00 0.00 33 1006.2
20180221192730 16 205 0.0 4.8 0.00 0.00 0.00 32 1006.2
20180221192529 16 54 4.8 4.8 0.00 0.00 0.00 33 1006.1
20180221192327 16 195 1.6 6.4 0.00 0.00 0.00 34 1006.1
20180221192125 16 227 0.0 6.4 0.00 0.00 0.00 34 1006.2
20180221191924 16 142 1.6 11.3 0.00 0.00 0.00 34 1006.2
20180221191723 16 160 1.6 11.3 0.00 0.00 0.00 34 1006.1
20180221191520 16 264 1.6 11.3 0.00 0.00 0.00 33 1006.1
20180221191319 16 241 0.0 11.3 0.00 0.00 0.00 35 1006.0
20180221191117 16 253 3.2 11.3 0.00 0.00 0.00 36 1006.0
20180221190916 16 115 1.6 8.0 0.00 0.00 0.00 36 1006.0
20180221190714 16 105 4.8 8.0 0.00 0.00 0.00 37 1006.0
20180221190513 16 222 3.2 8.0 0.00 0.00 0.00 39 1006.0
20180221190311 16 217 1.6 8.0 0.00 0.00 0.00 45 1006.0
20180221190110 16 30 1.6 8.0 0.00 0.00 0.00 45 1006.0
20180221185908 16 164 3.2 4.8 0.00 0.00 0.00 44 1005.9
20180221185707 17 303 1.6 4.8 0.00 0.00 0.00 44 1005.9
20180221185505 17 324 4.8 4.8 0.00 0.00 0.00 44 1005.9
20180221185304 17 268 0.0 6.4 0.00 0.00 0.00 43 1005.8
20180221185102 17 29 0.0 6.4 0.00 0.00 0.00 43 1005.8
20180221184900 17 281 4.8 6.4 0.00 0.00 0.00 43 1005.8
20180221184659 17 88 3.2 6.4 0.00 0.00 0.00 43 1005.7
20180221184457 17 53 3.2 6.4 0.00 0.00 0.00 43 1005.7
20180221184256 17 199 1.6 6.4 0.00 0.00 0.00 43 1005.7
20180221184054 17 264 0.0 6.4 0.00 0.00 0.00 43 1005.6
20180221183852 17 319 3.2 6.4 0.00 0.00 0.00 42 1005.6
20180221183651 17 217 0.0 6.4 0.00 0.00 0.00 42 1005.6
20180221183449 17 237 0.0 8.0 0.00 0.00 0.00 42 1005.6
20180221183248 17 312 3.2 8.0 0.00 0.00 0.00 42 1005.6
20180221183046 17 296 4.8 8.0 0.00 0.00 0.00 41 1005.6
20180221182845 17 298 1.6 8.0 0.00 0.00 0.00 41 1005.6
20180221182643 17 322 1.6 8.0 0.00 0.00 0.00 41 1005.5
20180221182442 17 355 3.2 9.7 0.00 0.00 0.00 41 1005.5
20180221182240 17 288 0.0 9.7 0.00 0.00 0.00 40 1005.5
20180221182039 17 323 1.6 9.7 0.00 0.00 0.00 40 1005.5
20180221181837 17 358 4.8 6.4 0.00 0.00 0.00 39 1005.5
20180221181636 17 312 6.4 6.4 0.00 0.00 0.00 39 1005.5
20180221181434 17 306 0.0 9.7 0.00 0.00 0.00 39 1005.5
20180221181233 17 330 0.0 9.7 0.00 0.00 0.00 39 1005.5
20180221181031 17 331 4.8 9.7 0.00 0.00 0.00 39 1005.5
20180221180829 18 298 1.6 11.3 0.00 0.00 0.00 38 1005.5
20180221180628 18 313 6.4 11.3 0.00 0.00 0.00 38 1005.5
20180221180426 18 317 4.8 9.7 0.00 0.00 0.00 37 1005.5
20180221180224 18 315 6.4 9.7 0.00 0.00 0.00 36 1005.5
20180221180023 19 305 4.8 9.7 0.00 0.00 0.00 35 1005.5
20180221175619 20 7 0.0 6.4 0.00 0.00 0.00 33 1005.5
20180221175417 20 343 3.2 6.4 0.00 0.00 0.00 32 1005.5
20180221175216 20 230 1.6 6.4 0.00 0.00 0.00 31 1005.5
20180221175014 20 313 3.2 6.4 0.00 0.00 0.00 29 1005.5
20180221174813 20 300 3.2 3.2 0.00 0.00 0.00 28 1005.5
20180221174611 20 315 4.8 3.2 0.00 0.00 0.00 27 1005.5
20180221174410 21 322 0.0 3.2 0.00 0.00 0.00 26 1005.5
20180221174208 21 336 0.0 3.2 0.00 0.00 0.00 26 1005.4
20180221174006 21 327 3.2 3.2 0.00 0.00 0.00 25 1005.4
20180221173805 21 310 0.0 0.0 0.00 0.00 0.00 25 1005.4
20180221173603 21 310 0.0 0.0 0.00 0.00 0.00 25 1005.4
20180221173402 21 310 0.0 0.0 0.00 0.00 0.00 25 1005.3
20180221173200 21 310 0.0 0.0 0.00 0.00 0.00 24 1005.4
20180221172959 21 310 0.0 0.0 0.00 0.00 0.00 25 1005.3
20180221172757 21 310 0.0 0.0 0.00 0.00 0.00 26 1005.3
20180221172555 21 281 0.0 0.0 0.00 0.00 0.00 25 1005.3
20180221172354 21 281 0.0 0.0 0.00 0.00 0.00 24 1005.3
20180221172152 21 281 0.0 0.0 0.00 0.00 0.00 24 1005.3
20180221171951 21 281 0.0 4.8 0.00 0.00 0.00 24 1005.3
20180221171346 21 281 0.0 4.8 0.00 0.00 0.00 24 1005.3
20180221171145 21 1 0.0 4.8 0.00 0.00 0.00 25 1005.3
20180221170943 21 326 3.2 4.8 0.00 0.00 0.00 24 1005.3
20180221170742 21 286 3.2 4.8 0.00 0.00 0.00 24 1005.3
20180221170540 21 322 0.0 4.8 0.00 0.00 0.00 24 1005.3
20180221170338 21 322 0.0 8.0 0.00 0.00 0.00 24 1005.2
20180221170137 21 357 1.6 8.0 0.00 0.00 0.00 24 1005.3
20180221165935 21 348 1.6 8.0 0.00 0.00 0.00 24 1005.3
20180221165733 21 347 3.2 8.0 0.00 0.00 0.00 24 1005.3
20180221165532 21 275 3.2 8.0 0.00 0.00 0.00 24 1005.2
20180221165330 21 309 4.8 8.0 0.00 0.00 0.00 24 1005.2
20180221165129 21 344 1.6 8.0 0.00 0.00 0.00 24 1005.2
20180221164927 21 337 4.8 8.0 0.00 0.00 0.00 25 1005.2
20180221164726 21 302 0.0 8.0 0.00 0.00 0.00 23 1005.3
20180221164524 21 35 1.6 8.0 0.00 0.00 0.00 23 1005.3
20180221164323 21 316 1.6 8.0 0.00 0.00 0.00 24 1005.3
20180221164121 21 306 0.0 8.0 0.00 0.00 0.00 24 1005.3
20180221163921 21 262 0.0 11.3 0.00 0.00 0.00 25 1005.3
20180221163718 20 25 3.2 11.3 0.00 0.00 0.00 25 1005.3
20180221163517 20 326 3.2 11.3 0.00 0.00 0.00 26 1005.4
20180221163315 21 317 1.6 9.7 0.00 0.00 0.00 27 1005.3
20180221163113 20 327 3.2 9.7 0.00 0.00 0.00 26 1005.4
20180221162913 20 326 6.4 12.9 0.00 0.00 0.00 28 1005.5
20180221162710 20 310 4.8 12.9 0.00 0.00 0.00 26 1005.4
20180221162308 21 11 4.8 9.7 0.00 0.00 0.00 27 1005.4
20180221162106 21 340 3.2 9.7 0.00 0.00 0.00 26 1005.4
20180221161904 20 310 3.2 12.9 0.00 0.00 0.00 27 1005.5
20180221161702 20 324 3.2 12.9 0.00 0.00 0.00 28 1005.5
20180221161501 20 340 3.2 12.9 0.00 0.00 0.00 28 1005.4
20180221161259 20 352 6.4 11.3 0.00 0.00 0.00 27 1005.5
20180221161058 20 21 4.8 11.3 0.00 0.00 0.00 27 1005.4
20180221160856 20 303 8.0 12.9 0.00 0.00 0.00 27 1005.5
20180221160655 20 337 6.4 12.9 0.00 0.00 0.00 26 1005.5
20180221160453 20 329 4.8 12.9 0.00 0.00 0.00 27 1005.4
20180221160252 21 322 8.0 12.9 0.00 0.00 0.00 27 1005.5
20180221160050 20 322 3.2 12.9 0.00 0.00 0.00 27 1005.5
20180221155849 20 327 6.4 14.5 0.00 0.00 0.00 26 1005.4
20180221155647 21 309 1.6 14.5 0.00 0.00 0.00 26 1005.5
20180221155445 21 316 6.4 9.7 0.00 0.00 0.00 26 1005.5
20180221155244 21 313 1.6 9.7 0.00 0.00 0.00 25 1005.5
20180221155042 21 306 6.4 9.7 0.00 0.00 0.00 23 1005.4
20180221154840 22 306 3.2 8.0 0.00 0.00 0.00 24 1005.5
20180221154639 22 320 4.8 8.0 0.00 0.00 0.00 24 1005.5
20180221154437 22 327 1.6 6.4 0.00 0.00 0.00 22 1005.6
20180221154236 22 323 1.6 6.4 0.00 0.00 0.00 21 1005.5
20180221154034 22 343 0.0 6.4 0.00 0.00 0.00 22 1005.6
20180221153833 22 299 0.0 6.4 0.00 0.00 0.00 23 1005.6
20180221153631 22 320 6.4 6.4 0.00 0.00 0.00 22 1005.7
20180221153430 21 125 0.0 11.3 0.00 0.00 0.00 24 1005.6
20180221153228 21 11 3.2 11.3 0.00 0.00 0.00 23 1005.7
20180221153029 21 310 0.0 11.3 0.00 0.00 0.00 23 1005.7
20180221152826 21 125 1.6 12.9 0.00 0.00 0.00 24 1005.7
20180221152624 21 334 4.8 12.9 0.00 0.00 0.00 24 1005.8
20180221152422 21 324 6.4 9.7 0.00 0.00 0.00 28 1005.8
20180221152220 21 307 9.7 9.7 0.00 0.00 0.00 28 1005.9
20180221152019 21 344 9.7 9.7 0.00 0.00 0.00 26 1005.8
20180221151817 21 296 3.2 11.3 0.00 0.00 0.00 25 1005.8
20180221151615 21 334 8.0 11.3 0.00 0.00 0.00 24 1005.9
20180221151414 21 334 8.0 9.7 0.00 0.00 0.00 24 1005.9
20180221151212 21 282 1.6 9.7 0.00 0.00 0.00 25 1005.9
20180221151011 21 326 3.2 9.7 0.00 0.00 0.00 23 1006.0
20180221150810 21 9 6.4 11.3 0.00 0.00 0.00 25 1006.0
20180221150608 20 327 1.6 11.3 0.00 0.00 0.00 27 1006.0
20180221150406 20 270 3.2 14.5 0.00 0.00 0.00 25 1006.0
20180221150205 20 330 4.8 14.5 0.00 0.00 0.00 25 1006.1
20180221150003 20 338 4.8 14.5 0.00 0.00 0.00 28 1006.1
20180221145802 20 303 12.9 12.9 0.00 0.00 0.00 29 1006.1
20180221145559 20 350 4.8 12.9 0.00 0.00 0.00 31 1006.2
20180221145358 20 316 4.8 9.7 0.00 0.00 0.00 29 1006.2
20180221145156 21 338 8.0 9.7 0.00 0.00 0.00 29 1006.2
20180221144954 21 313 4.8 9.7 0.00 0.00 0.00 27 1006.2
20180221144753 21 333 4.8 9.7 0.00 0.00 0.00 26 1006.3
20180221144551 21 57 1.6 9.7 0.00 0.00 0.00 26 1006.4
20180221144350 21 262 4.8 11.3 0.00 0.00 0.00 27 1006.4
20180221144202 21 331 3.2 11.3 0.00 0.00 0.00 27 1006.4
20180221143946 21 307 3.2 12.9 0.00 0.00 0.00 28 1006.4
20180221143745 21 282 4.8 12.9 0.00 0.00 0.00 28 1006.5
20180221143543 21 358 6.4 12.9 0.00 0.00 0.00 27 1006.6
20180221143342 21 334 3.2 11.3 0.00 0.00 0.00 27 1006.6
20180221143140 21 324 3.2 11.3 0.00 0.00 0.00 26 1006.6
20180221142939 21 307 3.2 9.7 0.00 0.00 0.00 27 1006.7
20180221142737 21 284 0.0 9.7 0.00 0.00 0.00 25 1006.7
20180221142536 21 313 1.6 9.7 0.00 0.00 0.00 24 1006.8
20180221142334 21 309 4.8 11.3 0.00 0.00 0.00 25 1006.8
20180221142133 21 338 8.0 11.3 0.00 0.00 0.00 26 1006.8
20180221141931 21 320 9.7 11.3 0.00 0.00 0.00 26 1006.9
20180221141730 21 334 6.4 11.3 0.00 0.00 0.00 26 1006.9
20180221141528 21 234 0.0 11.3 0.00 0.00 0.00 24 1006.9
20180221141327 21 118 3.2 8.0 0.00 0.00 0.00 24 1006.9
20180221141126 21 265 1.6 8.0 0.00 0.00 0.00 25 1007.0
20180221140923 21 80 8.0 8.0 0.00 0.00 0.00 25 1007.0
20180221140721 21 246 3.2 8.0 0.00 0.00 0.00 25 1007.1
20180221140520 21 258 0.0 8.0 0.00 0.00 0.00 26 1007.1
20180221140319 21 306 4.8 12.9 0.00 0.00 0.00 28 1007.2
20180221140117 20 345 1.6 12.9 0.00 0.00 0.00 29 1007.2
20180221135915 20 326 3.2 9.7 0.00 0.00 0.00 26 1007.3
20180221135714 20 254 3.2 9.7 0.00 0.00 0.00 26 1007.3
20180221135512 21 316 11.3 9.7 0.00 0.00 0.00 26 1007.3
20180221135311 21 293 0.0 8.0 0.00 0.00 0.00 25 1007.4
20180221135109 21 315 4.8 8.0 0.00 0.00 0.00 25 1007.4
20180221134908 21 310 3.2 6.4 0.00 0.00 0.00 25 1007.5
20180221134706 21 329 0.0 6.4 0.00 0.00 0.00 25 1007.5
20180221134505 20 90 3.2 6.4 0.00 0.00 0.00 27 1007.6
20180221134303 20 322 1.6 9.7 0.00 0.00 0.00 27 1007.6
20180221134102 20 302 1.6 9.7 0.00 0.00 0.00 26 1007.6
20180221133900 20 334 3.2 8.0 0.00 0.00 0.00 27 1007.6
20180221133658 20 324 4.8 8.0 0.00 0.00 0.00 26 1007.7
20180221133456 20 316 3.2 8.0 0.00 0.00 0.00 26 1007.8
20180221133255 20 291 4.8 9.7 0.00 0.00 0.00 27 1007.8
20180221133053 20 305 0.0 9.7 0.00 0.00 0.00 27 1007.9
20180221132852 20 302 6.4 9.7 0.00 0.00 0.00 26 1008.0
20180221132650 21 340 8.0 9.7 0.00 0.00 0.00 26 1008.0
20180221132449 20 68 4.8 9.7 0.00 0.00 0.00 27 1008.1
20180221132247 20 97 1.6 9.7 0.00 0.00 0.00 28 1008.1
20180221132046 20 113 1.6 9.7 0.00 0.00 0.00 29 1008.1
20180221131844 20 122 3.2 9.7 0.00 0.00 0.00 27 1008.2
20180221131643 20 92 4.8 9.7 0.00 0.00 0.00 26 1008.2
20180221131442 20 78 6.4 4.8 0.00 0.00 0.00 26 1008.3
20180221131240 20 233 0.0 4.8 0.00 0.00 0.00 29 1008.3
20180221131038 20 85 1.6 4.8 0.00 0.00 0.00 28 1008.4
20180221130837 19 286 0.0 8.0 0.00 0.00 0.00 31 1008.3
20180221130636 19 227 1.6 8.0 0.00 0.00 0.00 31 1008.5
20180221130433 18 354 0.0 9.7 0.00 0.00 0.00 30 1008.5
20180221130232 18 329 1.6 9.7 0.00 0.00 0.00 29 1008.6
20180221130031 18 324 3.2 9.7 0.00 0.00 0.00 30 1008.6
20180221125829 18 341 0.0 16.1 0.00 0.00 0.00 31 1008.7
20180221125627 18 35 6.4 16.1 0.00 0.00 0.00 31 1008.8
20180221125425 18 140 6.4 8.0 0.00 0.00 0.00 31 1008.7
20180221125224 18 57 9.7 8.0 0.00 0.00 0.00 31 1008.8
20180221125022 18 109 3.2 8.0 0.00 0.00 0.00 32 1008.8
20180221124821 18 78 3.2 12.9 0.00 0.00 0.00 31 1008.9
20180221124619 18 333 1.6 12.9 0.00 0.00 0.00 31 1009.0
20180221124418 18 126 3.2 8.0 0.00 0.00 0.00 32 1009.0
20180221124216 18 336 1.6 8.0 0.00 0.00 0.00 31 1009.1
20180221124015 18 105 8.0 8.0 0.00 0.00 0.00 33 1009.1
20180221123813 18 78 4.8 8.0 0.00 0.00 0.00 32 1009.2
20180221123612 18 212 1.6 8.0 0.00 0.00 0.00 32 1009.2
20180221123410 18 144 1.6 8.0 0.00 0.00 0.00 36 1009.2
20180221123208 17 326 0.0 8.0 0.00 0.00 0.00 37 1009.3
20180221123007 17 175 6.4 8.0 0.00 0.00 0.00 37 1009.3
20180221122805 17 45 3.2 8.0 0.00 0.00 0.00 35 1009.4
20180221122603 17 310 1.6 8.0 0.00 0.00 0.00 41 1009.4
20180221122403 17 309 3.2 11.3 0.00 0.00 0.00 41 1009.4
20180221122200 16 322 3.2 11.3 0.00 0.00 0.00 42 1009.5
20180221121959 16 319 6.4 11.3 0.00 0.00 0.00 42 1009.5
20180221121757 16 341 9.7 11.3 0.00 0.00 0.00 42 1009.5
20180221121556 16 4 6.4 11.3 0.00 0.00 0.00 43 1009.5
20180221121354 16 320 6.4 8.0 0.00 0.00 0.00 43 1009.5
20180221121153 16 317 8.0 8.0 0.00 0.00 0.00 41 1009.6
20180221120951 16 320 4.8 9.7 0.00 0.00 0.00 42 1009.6
20180221120750 16 305 3.2 9.7 0.00 0.00 0.00 43 1009.7
20180221120548 16 292 3.2 9.7 0.00 0.00 0.00 43 1009.8
20180221120347 16 315 3.2 8.0 0.00 0.00 0.00 43 1009.8
20180221120145 16 337 4.8 8.0 0.00 0.00 0.00 43 1009.8
20180221115943 16 319 1.6 6.4 0.00 0.00 0.00 43 1009.8
20180221115742 16 323 4.8 6.4 0.00 0.00 0.00 45 1009.8
20180221115540 15 312 4.8 6.4 0.00 0.00 0.00 45 1010.0
20180221115338 15 326 4.8 8.0 0.00 0.00 0.00 46 1010.0
20180221115137 15 352 4.8 8.0 0.00 0.00 0.00 46 1010.1
20180221114936 15 303 4.8 9.7 0.00 0.00 0.00 47 1010.1
20180221114734 15 358 6.4 9.7 0.00 0.00 0.00 48 1010.1
20180221114532 15 320 6.4 9.7 0.00 0.00 0.00 47 1010.2
20180221114331 15 22 3.2 9.7 0.00 0.00 0.00 48 1010.2
20180221114129 15 344 4.8 9.7 0.00 0.00 0.00 48 1010.2
20180221113928 15 309 6.4 8.0 0.00 0.00 0.00 47 1010.3
20180221113726 14 330 6.4 8.0 0.00 0.00 0.00 47 1010.3
20180221113525 14 298 1.6 8.0 0.00 0.00 0.00 47 1010.3
20180221113323 14 305 4.8 6.4 0.00 0.00 0.00 49 1010.3
20180221113122 14 340 6.4 6.4 0.00 0.00 0.00 48 1010.3
20180221112920 14 331 4.8 8.0 0.00 0.00 0.00 49 1010.3
20180221112719 14 358 0.0 8.0 0.00 0.00 0.00 49 1010.3
20180221112517 14 340 3.2 8.0 0.00 0.00 0.00 49 1010.4
20180221112315 14 329 3.2 8.0 0.00 0.00 0.00 48 1010.4
20180221112114 13 323 0.0 8.0 0.00 0.00 0.00 49 1010.3
20180221111912 13 355 6.4 9.7 0.00 0.00 0.00 50 1010.4
20180221111710 13 11 0.0 9.7 0.00 0.00 0.00 51 1010.4
20180221111510 13 319 3.2 9.7 0.00 0.00 0.00 51 1010.4
20180221111307 13 319 8.0 8.0 0.00 0.00 0.00 50 1010.4
20180221111106 13 345 1.6 8.0 0.00 0.00 0.00 51 1010.4
20180221110905 13 327 4.8 6.4 0.00 0.00 0.00 52 1010.5
20180221110704 13 358 6.4 6.4 0.00 0.00 0.00 52 1010.5
20180221110501 13 317 3.2 6.4 0.00 0.00 0.00 52 1010.5
20180221110300 13 347 4.8 9.7 0.00 0.00 0.00 54 1010.5
20180221110057 13 177 1.6 9.7 0.00 0.00 0.00 54 1010.5
20180221105856 13 327 4.8 9.7 0.00 0.00 0.00 53 1010.5
20180221105654 12 4 1.6 9.7 0.00 0.00 0.00 55 1010.5
20180221105453 12 317 6.4 8.0 0.00 0.00 0.00 54 1010.6
20180221105251 12 341 1.6 8.0 0.00 0.00 0.00 54 1010.6
20180221105049 12 322 3.2 8.0 0.00 0.00 0.00 56 1010.6
20180221104848 12 347 4.8 8.0 0.00 0.00 0.00 55 1010.7
20180221104646 12 310 4.8 8.0 0.00 0.00 0.00 55 1010.7
20180221104444 12 322 3.2 8.0 0.00 0.00 0.00 56 1010.7
20180221104243 12 14 1.6 8.0 0.00 0.00 0.00 55 1010.7
20180221104041 12 300 0.0 8.0 0.00 0.00 0.00 56 1010.7
20180221103840 12 307 1.6 11.3 0.00 0.00 0.00 57 1010.6
20180221103638 12 341 3.2 11.3 0.00 0.00 0.00 58 1010.7
20180221103437 12 309 9.7 6.4 0.00 0.00 0.00 59 1010.7
20180221103235 12 320 1.6 6.4 0.00 0.00 0.00 59 1010.7
20180221103034 11 319 3.2 6.4 0.00 0.00 0.00 59 1010.8
20180221102832 11 5 1.6 4.8 0.00 0.00 0.00 60 1010.8
20180221102631 11 255 3.2 4.8 0.00 0.00 0.00 60 1010.7
20180221102428 11 343 1.6 8.0 0.00 0.00 0.00 60 1010.8
20180221102227 11 333 0.0 8.0 0.00 0.00 0.00 60 1010.8
20180221102025 11 18 3.2 8.0 0.00 0.00 0.00 61 1010.7
20180221101824 11 302 3.2 6.4 0.00 0.00 0.00 60 1010.7
20180221101622 11 340 3.2 6.4 0.00 0.00 0.00 60 1010.7
20180221101420 11 274 3.2 4.8 0.00 0.00 0.00 60 1010.7
20180221101219 11 299 3.2 4.8 0.00 0.00 0.00 60 1010.7
20180221101017 11 320 4.8 4.8 0.00 0.00 0.00 61 1010.7
20180221100815 10 84 1.6 6.4 0.00 0.00 0.00 62 1010.7
20180221100615 11 223 0.0 6.4 0.00 0.00 0.00 62 1010.7
20180221100412 11 343 1.6 8.0 0.00 0.00 0.00 62 1010.7
20180221100211 10 326 0.0 8.0 0.00 0.00 0.00 63 1010.7
20180221100010 10 323 0.0 8.0 0.00 0.00 0.00 64 1010.7
20180221095808 10 288 0.0 4.8 0.00 0.00 0.00 64 1010.7
20180221095606 10 135 0.0 4.8 0.00 0.00 0.00 65 1010.7
20180221095405 10 309 1.6 4.8 0.00 0.00 0.00 66 1010.7
20180221095203 10 8 0.0 4.8 0.00 0.00 0.00 66 1010.7
20180221095002 10 53 0.0 4.8 0.00 0.00 0.00 67 1010.7
20180221094800 10 229 0.0 6.4 0.00 0.00 0.00 67 1010.7
20180221094559 9 126 3.2 6.4 0.00 0.00 0.00 67 1010.6
20180221094357 9 303 3.2 6.4 0.00 0.00 0.00 68 1010.7
20180221094155 9 305 1.6 6.4 0.00 0.00 0.00 69 1010.6
20180221093954 9 84 0.0 11.3 0.00 0.00 0.00 69 1010.6
20180221093757 9 330 1.6 11.3 0.00 0.00 0.00 69 1010.6
20180221093605 9 97 3.2 11.3 0.00 0.00 0.00 69 1010.5
20180221093349 8 358 1.6 6.4 0.00 0.00 0.00 69 1010.5
20180221093147 8 60 6.4 6.4 0.00 0.00 0.00 68 1010.5
20180221092946 8 16 3.2 4.8 0.00 0.00 0.00 69 1010.6
20180221092744 8 333 1.6 4.8 0.00 0.00 0.00 68 1010.6
20180221092543 8 326 0.0 4.8 0.00 0.00 0.00 68 1010.6
20180221092341 9 312 0.0 3.2 0.00 0.00 0.00 68 1010.6
20180221092140 8 315 0.0 3.2 0.00 0.00 0.00 69 1010.5
20180221091737 8 75 1.6 6.4 0.00 0.00 0.00 70 1010.6
20180221091535 8 300 0.0 6.4 0.00 0.00 0.00 70 1010.5
20180221091334 8 78 0.0 4.8 0.00 0.00 0.00 71 1010.6
20180221090930 8 142 0.0 4.8 0.00 0.00 0.00 71 1010.6
20180221090729 8 53 0.0 4.8 0.00 0.00 0.00 71 1010.6
20180221090527 8 305 4.8 4.8 0.00 0.00 0.00 71 1010.6
20180221090325 8 305 1.6 11.3 0.00 0.00 0.00 71 1010.7
20180221090124 8 46 3.2 11.3 0.00 0.00 0.00 71 1010.7
20180221085923 8 262 0.0 4.8 0.00 0.00 0.00 71 1010.7
20180221085721 8 329 1.6 4.8 0.00 0.00 0.00 71 1010.7
20180221085520 8 90 4.8 4.8 0.00 0.00 0.00 70 1010.6
20180221085318 8 18 0.0 8.0 0.00 0.00 0.00 71 1010.7
20180221085117 8 285 0.0 8.0 0.00 0.00 0.00 71 1010.7
20180221084915 8 343 3.2 9.7 0.00 0.00 0.00 71 1010.7
20180221084713 8 210 0.0 9.7 0.00 0.00 0.00 71 1010.6
20180221084512 8 341 4.8 9.7 0.00 0.00 0.00 71 1010.6
20180221084310 8 212 1.6 11.3 0.00 0.00 0.00 70 1010.6
20180221084109 8 0 4.8 11.3 0.00 0.00 0.00 70 1010.6
20180221083907 8 336 6.4 9.7 0.00 0.00 0.00 68 1010.6
20180221083706 8 358 4.8 9.7 0.00 0.00 0.00 66 1010.5
20180221083504 8 64 3.2 9.7 0.00 0.00 0.00 65 1010.6
20180221083303 8 43 6.4 6.4 0.00 0.00 0.00 64 1010.5
20180221083101 9 303 3.2 6.4 0.00 0.00 0.00 63 1010.6
20180221082859 9 316 6.4 6.4 0.00 0.00 0.00 62 1010.6
20180221082657 9 333 3.2 6.4 0.00 0.00 0.00 61 1010.6
20180221082456 10 334 4.8 6.4 0.00 0.00 0.00 62 1010.5
20180221082254 9 281 0.0 8.0 0.00 0.00 0.00 62 1010.5
20180221082053 9 292 3.2 8.0 0.00 0.00 0.00 63 1010.6
20180221081851 9 119 4.8 8.0 0.00 0.00 0.00 62 1010.6
20180221081650 9 281 3.2 8.0 0.00 0.00 0.00 62 1010.7
20180221081448 9 68 1.6 8.0 0.00 0.00 0.00 63 1010.7
20180221081247 9 225 1.6 8.0 0.00 0.00 0.00 63 1010.7
20180221081045 9 109 1.6 8.0 0.00 0.00 0.00 62 1010.6
20180221080844 9 88 3.2 8.0 0.00 0.00 0.00 62 1010.7
20180221080642 9 97 4.8 8.0 0.00 0.00 0.00 63 1010.7
20180221080440 10 137 3.2 11.3 0.00 0.00 0.00 62 1010.7
20180221080239 9 161 3.2 11.3 0.00 0.00 0.00 63 1010.7
20180221080038 9 264 1.6 11.3 0.00 0.00 0.00 63 1010.7
20180221075836 10 87 4.8 8.0 0.00 0.00 0.00 63 1010.6
20180221075634 9 317 4.8 8.0 0.00 0.00 0.00 63 1010.7
20180221075433 9 80 1.6 8.0 0.00 0.00 0.00 64 1010.6
20180221075231 9 324 4.8 8.0 0.00 0.00 0.00 64 1010.5
20180221075029 9 310 3.2 8.0 0.00 0.00 0.00 65 1010.5
20180221074828 8 168 0.0 14.5 0.00 0.00 0.00 66 1010.4
20180221074626 8 313 4.8 14.5 0.00 0.00 0.00 66 1010.4
20180221074425 8 326 6.4 8.0 0.00 0.00 0.00 67 1010.4
20180221074223 8 150 1.6 8.0 0.00 0.00 0.00 68 1010.4
20180221074022 8 180 1.6 8.0 0.00 0.00 0.00 69 1010.3
20180221073820 8 265 1.6 11.3 0.00 0.00 0.00 70 1010.3
20180221073620 7 264 3.2 11.3 0.00 0.00 0.00 71 1010.3
20180221073417 7 277 1.6 9.7 0.00 0.00 0.00 72 1010.3
20180221073216 7 315 4.8 9.7 0.00 0.00 0.00 74 1010.3
20180221073014 7 323 4.8 9.7 0.00 0.00 0.00 75 1010.3
20180221072812 7 140 4.8 8.0 0.00 0.00 0.00 76 1010.3
20180221072611 7 333 3.2 8.0 0.00 0.00 0.00 75 1010.2
20180221072409 7 350 0.0 9.7 0.00 0.00 0.00 75 1010.2
20180221072208 7 330 0.0 9.7 0.00 0.00 0.00 75 1010.2
20180221072006 7 184 1.6 9.7 0.00 0.00 0.00 75 1010.1
20180221071804 7 194 3.2 8.0 0.00 0.00 0.00 75 1010.1
20180221071603 7 309 8.0 8.0 0.00 0.00 0.00 75 1010.1
20180221071401 7 278 1.6 12.9 0.00 0.00 0.00 75 1010.0
20180221071201 7 274 3.2 12.9 0.00 0.00 0.00 75 1010.0
20180221070958 7 91 4.8 12.9 0.00 0.00 0.00 75 1010.0
20180221070757 7 101 3.2 14.5 0.00 0.00 0.00 75 1010.0
20180221070555 7 255 3.2 14.5 0.00 0.00 0.00 75 1009.9
20180221070354 7 88 6.4 11.3 0.00 0.00 0.00 76 1009.9
20180221070152 7 32 3.2 11.3 0.00 0.00 0.00 76 1009.9
20180221065951 7 81 8.0 11.3 0.00 0.00 0.00 76 1009.9
20180221065749 7 91 3.2 11.3 0.00 0.00 0.00 76 1009.8
20180221065547 7 78 9.7 11.3 0.00 0.00 0.00 76 1009.7
20180221065346 7 42 4.8 9.7 0.00 0.00 0.00 76 1009.7
20180221065144 7 36 3.2 9.7 0.00 0.00 0.00 76 1009.7
20180221064943 7 73 4.8 9.7 0.00 0.00 0.00 75 1009.7
20180221064742 7 106 8.0 9.7 0.00 0.00 0.00 75 1009.7
20180221064539 7 119 1.6 9.7 0.00 0.00 0.00 75 1009.6
20180221064338 7 309 4.8 9.7 0.00 0.00 0.00 75 1009.6
20180221064136 7 182 0.0 9.7 0.00 0.00 0.00 75 1009.7
20180221063935 7 358 3.2 9.7 0.00 0.00 0.00 75 1009.7
20180221063734 7 264 3.2 9.7 0.00 0.00 0.00 75 1009.6
20180221063532 7 313 3.2 9.7 0.00 0.00 0.00 75 1009.7
20180221063330 7 323 4.8 9.7 0.00 0.00 0.00 75 1009.6
20180221063129 7 60 4.8 9.7 0.00 0.00 0.00 76 1009.6
20180221062927 7 322 6.4 9.7 0.00 0.00 0.00 76 1009.6
20180221062726 7 341 1.6 9.7 0.00 0.00 0.00 76 1009.6
20180221062524 7 313 3.2 9.7 0.00 0.00 0.00 76 1009.6
20180221062323 7 275 3.2 6.4 0.00 0.00 0.00 76 1009.5
20180221062121 7 90 3.2 6.4 0.00 0.00 0.00 76 1009.6
20180221061919 7 285 0.0 6.4 0.00 0.00 0.00 76 1009.6
20180221061718 7 324 3.2 6.4 0.00 0.00 0.00 76 1009.7
20180221061516 7 73 1.6 6.4 0.00 0.00 0.00 76 1009.7
20180221061314 7 300 0.0 8.0 0.00 0.00 0.00 76 1009.8
20180221061113 7 73 3.2 8.0 0.00 0.00 0.00 76 1009.8
20180221060911 7 261 1.6 9.7 0.00 0.00 0.00 76 1009.9
20180221060710 7 205 0.0 9.7 0.00 0.00 0.00 76 1009.9
20180221060508 7 264 1.6 9.7 0.00 0.00 0.00 76 1009.9
20180221060307 7 220 0.0 6.4 0.00 0.00 0.00 76 1009.9
20180221060105 7 21 0.0 6.4 0.00 0.00 0.00 76 1009.9
20180221055904 7 70 0.0 3.2 0.00 0.00 0.00 76 1009.9
20180221055702 7 289 0.0 3.2 0.00 0.00 0.00 76 1010.0
20180221055501 7 306 1.6 3.2 0.00 0.00 0.00 76 1010.0
20180221055058 7 289 0.0 3.2 0.00 0.00 0.00 75 1010.0
20180221054856 7 300 0.0 4.8 0.00 0.00 0.00 75 1010.0
20180221054654 7 268 1.6 4.8 0.00 0.00 0.00 75 1010.1
20180221054251 7 272 1.6 6.4 0.00 0.00 0.00 75 1010.2
20180221054050 7 237 1.6 6.4 0.00 0.00 0.00 75 1010.2
20180221053848 7 322 1.6 4.8 0.00 0.00 0.00 74 1010.2
20180221053647 7 243 0.0 4.8 0.00 0.00 0.00 74 1010.2
20180221053445 7 180 1.6 4.8 0.00 0.00 0.00 74 1010.3
20180221053243 7 217 1.6 4.8 0.00 0.00 0.00 74 1010.3
20180221053042 7 300 1.6 4.8 0.00 0.00 0.00 74 1010.3
20180221052840 7 95 1.6 6.4 0.00 0.00 0.00 74 1010.3
20180221052640 7 196 0.0 6.4 0.00 0.00 0.00 74 1010.3
20180221052437 7 149 1.6 8.0 0.00 0.00 0.00 75 1010.3
20180221052236 7 172 0.0 8.0 0.00 0.00 0.00 75 1010.3
20180221052034 7 160 0.0 8.0 0.00 0.00 0.00 75 1010.3
20180221051833 7 98 1.6 6.4 0.00 0.00 0.00 74 1010.3
20180221051632 7 154 0.0 6.4 0.00 0.00 0.00 74 1010.3
20180221051430 7 119 4.8 8.0 0.00 0.00 0.00 74 1010.3
20180221051228 7 220 0.0 8.0 0.00 0.00 0.00 74 1010.3
20180221051026 7 209 1.6 8.0 0.00 0.00 0.00 74 1010.3
20180221050825 7 210 3.2 11.3 0.00 0.00 0.00 74 1010.2
20180221050623 7 230 1.6 11.3 0.00 0.00 0.00 74 1010.3
20180221050421 7 313 3.2 9.7 0.00 0.00 0.00 74 1010.3
20180221050220 7 303 6.4 9.7 0.00 0.00 0.00 74 1010.4
20180221050019 7 216 6.4 9.7 0.00 0.00 0.00 74 1010.4
20180221045817 7 329 4.8 4.8 0.00 0.00 0.00 74 1010.3
20180221045615 7 187 1.6 4.8 0.00 0.00 0.00 74 1010.3
20180221045414 7 98 4.8 4.8 0.00 0.00 0.00 74 1010.3
20180221045212 7 45 3.2 4.8 0.00 0.00 0.00 74 1010.3
20180221045011 7 345 3.2 4.8 0.00 0.00 0.00 74 1010.3
20180221044809 7 206 3.2 3.2 0.00 0.00 0.00 73 1010.3
20180221044608 7 208 1.6 3.2 0.00 0.00 0.00 73 1010.3
20180221044406 8 220 0.0 3.2 0.00 0.00 0.00 73 1010.4
20180221044205 7 298 0.0 3.2 0.00 0.00 0.00 73 1010.4
20180221044003 7 316 1.6 3.2 0.00 0.00 0.00 73 1010.4
20180221043801 7 253 0.0 3.2 0.00 0.00 0.00 73 1010.4
20180221043600 7 241 0.0 3.2 0.00 0.00 0.00 73 1010.4
20180221043358 7 241 0.0 3.2 0.00 0.00 0.00 73 1010.4
20180221043156 7 295 0.0 3.2 0.00 0.00 0.00 73 1010.4
20180221042955 7 298 3.2 3.2 0.00 0.00 0.00 73 1010.5
20180221042753 7 153 0.0 3.2 0.00 0.00 0.00 73 1010.5
20180221042552 7 187 0.0 3.2 0.00 0.00 0.00 73 1010.5
20180221042351 8 313 0.0 4.8 0.00 0.00 0.00 73 1010.5
20180221042149 7 39 0.0 4.8 0.00 0.00 0.00 73 1010.4
20180221041947 7 98 0.0 3.2 0.00 0.00 0.00 73 1010.5
20180221041746 7 50 0.0 3.2 0.00 0.00 0.00 74 1010.6
20180221041544 8 104 0.0 3.2 0.00 0.00 0.00 74 1010.6
20180221041343 7 270 0.0 4.8 0.00 0.00 0.00 74 1010.6
20180221041141 7 247 0.0 4.8 0.00 0.00 0.00 74 1010.6
20180221040940 7 0 0.0 3.2 0.00 0.00 0.00 74 1010.7
20180221040738 8 119 1.6 3.2 0.00 0.00 0.00 74 1010.6
20180221040537 8 278 0.0 3.2 0.00 0.00 0.00 74 1010.7
20180221040335 8 201 0.0 4.8 0.00 0.00 0.00 74 1010.7
20180221040133 8 198 0.0 4.8 0.00 0.00 0.00 74 1010.7
20180221035932 7 216 0.0 4.8 0.00 0.00 0.00 74 1010.7
20180221035730 8 247 1.6 4.8 0.00 0.00 0.00 74 1010.7
20180221035528 8 305 0.0 4.8 0.00 0.00 0.00 74 1010.7
20180221035327 8 219 3.2 4.8 0.00 0.00 0.00 73 1010.7
20180221035125 8 223 1.6 4.8 0.00 0.00 0.00 73 1010.8
20180221034924 8 234 1.6 6.4 0.00 0.00 0.00 73 1010.8
20180221034722 8 16 0.0 6.4 0.00 0.00 0.00 73 1010.8
20180221034521 8 143 3.2 6.4 0.00 0.00 0.00 73 1010.9
20180221034320 8 213 0.0 3.2 0.00 0.00 0.00 73 1010.9
20180221034118 8 150 0.0 3.2 0.00 0.00 0.00 73 1010.9
20180221033916 8 203 0.0 6.4 0.00 0.00 0.00 73 1010.9
20180221033715 8 184 0.0 6.4 0.00 0.00 0.00 73 1010.9
20180221033513 8 292 0.0 6.4 0.00 0.00 0.00 73 1011.0
20180221033312 8 180 0.0 4.8 0.00 0.00 0.00 73 1011.0
20180221033110 8 277 0.0 4.8 0.00 0.00 0.00 73 1011.0
20180221032908 8 248 1.6 6.4 0.00 0.00 0.00 73 1011.0
20180221032707 8 9 1.6 6.4 0.00 0.00 0.00 73 1011.0
20180221032505 8 261 1.6 6.4 0.00 0.00 0.00 73 1011.1
20180221032303 8 129 6.4 6.4 0.00 0.00 0.00 73 1011.1
20180221032103 8 187 1.6 6.4 0.00 0.00 0.00 72 1011.1
20180221031901 8 185 0.0 4.8 0.00 0.00 0.00 72 1011.1
20180221031659 8 303 0.0 4.8 0.00 0.00 0.00 72 1011.2
20180221031457 8 180 0.0 4.8 0.00 0.00 0.00 72 1011.2
20180221031256 8 251 1.6 4.8 0.00 0.00 0.00 72 1011.3
20180221031054 8 223 0.0 4.8 0.00 0.00 0.00 72 1011.3
20180221030853 8 298 3.2 4.8 0.00 0.00 0.00 72 1011.3
20180221030651 8 60 0.0 4.8 0.00 0.00 0.00 72 1011.3
20180221030450 8 106 0.0 3.2 0.00 0.00 0.00 72 1011.3
20180221030248 9 60 0.0 3.2 0.00 0.00 0.00 72 1011.3
20180221030047 8 81 3.2 3.2 0.00 0.00 0.00 72 1011.3
20180221025845 8 213 1.6 6.4 0.00 0.00 0.00 72 1011.3
20180221025643 8 303 0.0 6.4 0.00 0.00 0.00 72 1011.4
20180221025442 9 285 0.0 6.4 0.00 0.00 0.00 72 1011.4
20180221025240 9 189 1.6 6.4 0.00 0.00 0.00 72 1011.4
20180221025039 9 220 0.0 6.4 0.00 0.00 0.00 71 1011.4
20180221024837 9 167 1.6 6.4 0.00 0.00 0.00 71 1011.5
20180221024635 9 305 4.8 6.4 0.00 0.00 0.00 71 1011.4
20180221024434 9 289 0.0 4.8 0.00 0.00 0.00 71 1011.6
20180221024233 9 23 1.6 4.8 0.00 0.00 0.00 71 1011.6
20180221024031 9 230 1.6 4.8 0.00 0.00 0.00 71 1011.5
20180221023829 9 247 1.6 6.4 0.00 0.00 0.00 71 1011.5
20180221023628 9 150 1.6 6.4 0.00 0.00 0.00 71 1011.6
20180221023426 9 70 1.6 3.2 0.00 0.00 0.00 71 1011.5
20180221023225 9 330 3.2 3.2 0.00 0.00 0.00 71 1011.5
20180221023023 9 203 1.6 3.2 0.00 0.00 0.00 71 1011.6
20180221022822 9 180 1.6 6.4 0.00 0.00 0.00 71 1011.6
20180221022620 9 108 0.0 6.4 0.00 0.00 0.00 71 1011.7
20180221022419 9 154 0.0 4.8 0.00 0.00 0.00 71 1011.7
20180221022217 9 78 1.6 4.8 0.00 0.00 0.00 71 1011.7
20180221022015 9 85 3.2 4.8 0.00 0.00 0.00 71 1011.7
20180221021814 9 288 0.0 4.8 0.00 0.00 0.00 71 1011.7
20180221021612 10 157 0.0 4.8 0.00 0.00 0.00 70 1011.8
20180221021411 9 246 0.0 6.4 0.00 0.00 0.00 70 1011.8
20180221021210 9 258 1.6 6.4 0.00 0.00 0.00 70 1011.7
20180221021007 9 322 1.6 6.4 0.00 0.00 0.00 70 1011.8
20180221020806 9 165 0.0 6.4 0.00 0.00 0.00 70 1011.8
20180221020604 10 232 0.0 6.4 0.00 0.00 0.00 70 1011.8
20180221020403 10 196 1.6 4.8 0.00 0.00 0.00 70 1011.8
20180221020201 10 150 1.6 4.8 0.00 0.00 0.00 70 1011.8
20180221020000 9 113 0.0 4.8 0.00 0.00 0.00 70 1011.9
20180221015758 10 198 0.0 4.8 0.00 0.00 0.00 70 1011.9
20180221015557 10 68 0.0 4.8 0.00 0.00 0.00 70 1011.9
20180221015355 10 250 0.0 6.4 0.00 0.00 0.00 70 1012.0
20180221015154 10 160 1.6 6.4 0.00 0.00 0.00 70 1012.0
20180221014952 10 213 0.0 6.4 0.00 0.00 0.00 70 1012.0
20180221014750 10 199 0.0 6.4 0.00 0.00 0.00 70 1012.1
20180221014549 10 97 1.6 6.4 0.00 0.00 0.00 70 1012.0
20180221014347 10 12 0.0 4.8 0.00 0.00 0.00 70 1012.1
20180221014145 10 60 0.0 4.8 0.00 0.00 0.00 70 1012.1
20180221013944 10 286 0.0 4.8 0.00 0.00 0.00 70 1012.1
20180221013742 10 299 1.6 4.8 0.00 0.00 0.00 70 1012.1
20180221013541 10 210 0.0 4.8 0.00 0.00 0.00 70 1012.0
20180221013339 10 111 0.0 6.4 0.00 0.00 0.00 70 1012.1
20180221013138 10 255 0.0 6.4 0.00 0.00 0.00 70 1012.2
20180221012735 10 109 3.2 4.8 0.00 0.00 0.00 69 1012.2
20180221012533 10 81 3.2 4.8 0.00 0.00 0.00 69 1012.2
20180221012332 10 77 1.6 3.2 0.00 0.00 0.00 69 1012.2
20180221012130 10 111 1.6 3.2 0.00 0.00 0.00 69 1012.3
20180221011929 10 63 0.0 3.2 0.00 0.00 0.00 69 1012.3
20180221011727 10 246 0.0 3.2 0.00 0.00 0.00 68 1012.3
20180221011525 10 293 0.0 3.2 0.00 0.00 0.00 68 1012.3
20180221011324 10 199 1.6 1.6 0.00 0.00 0.00 68 1012.3
20180221011122 10 234 0.0 1.6 0.00 0.00 0.00 68 1012.3
20180221010921 10 289 0.0 1.6 0.00 0.00 0.00 68 1012.2
20180221010719 10 313 0.0 1.6 0.00 0.00 0.00 68 1012.2
20180221010518 10 277 0.0 1.6 0.00 0.00 0.00 67 1012.3
20180221010316 11 277 0.0 0.0 0.00 0.00 0.00 67 1012.3
20180221010114 11 71 0.0 0.0 0.00 0.00 0.00 67 1012.2
20180221005913 11 71 0.0 0.0 0.00 0.00 0.00 67 1012.2
20180221005712 11 71 0.0 0.0 0.00 0.00 0.00 67 1012.3
20180221005510 11 71 0.0 0.0 0.00 0.00 0.00 67 1012.2
20180221005308 11 71 0.0 4.8 0.00 0.00 0.00 67 1012.3
20180221005107 11 71 0.0 4.8 0.00 0.00 0.00 67 1012.3
20180221004905 11 71 0.0 6.4 0.00 0.00 0.00 66 1012.3
20180221004704 11 203 1.6 6.4 0.00 0.00 0.00 66 1012.3
20180221004502 11 135 0.0 6.4 0.00 0.00 0.00 66 1012.3
20180221004301 11 82 4.8 4.8 0.00 0.00 0.00 66 1012.3
20180221004059 11 120 1.6 4.8 0.00 0.00 0.00 66 1012.3
20180221003857 11 149 0.0 1.6 0.00 0.00 0.00 66 1012.3
20180221003656 11 201 0.0 1.6 0.00 0.00 0.00 66 1012.4
20180221003454 11 209 0.0 3.2 0.00 0.00 0.00 66 1012.3
20180221003252 11 265 0.0 3.2 0.00 0.00 0.00 66 1012.3
20180221003051 11 265 0.0 3.2 0.00 0.00 0.00 66 1012.4
20180221002849 11 307 0.0 6.4 0.00 0.00 0.00 66 1012.4
20180221002648 11 312 0.0 6.4 0.00 0.00 0.00 66 1012.4
20180221002446 11 313 0.0 4.8 0.00 0.00 0.00 66 1012.4
20180221002245 11 296 4.8 4.8 0.00 0.00 0.00 66 1012.4
20180221002043 11 307 0.0 4.8 0.00 0.00 0.00 66 1012.5
20180221001842 11 305 1.6 4.8 0.00 0.00 0.00 66 1012.5
20180221001640 11 46 1.6 4.8 0.00 0.00 0.00 66 1012.5
20180221001439 11 171 0.0 3.2 0.00 0.00 0.00 66 1012.5
20180221001237 11 292 0.0 3.2 0.00 0.00 0.00 66 1012.5
20180221001036 11 307 3.2 3.2 0.00 0.00 0.00 66 1012.5
20180221000834 11 50 1.6 6.4 0.00 0.00 0.00 66 1012.5
20180221000632 11 184 0.0 6.4 0.00 0.00 0.00 66 1012.5
20180221000431 11 74 0.0 6.4 0.00 0.00 0.00 66 1012.5
20180221000229 11 223 0.0 6.4 0.00 0.00 0.00 66 1012.5
20180221000035 11 118 4.8 6.4 0.00 0.00 0.00 67 1012.6
20180220235826 11 54 1.6 6.4 0.00 0.00 0.00 67 1012.6
20180220235624 11 78 1.6 6.4 0.00 0.00 0.00 67 1012.7
20180220235423 11 126 1.6 4.8 0.00 0.00 0.00 67 1012.7
20180220235221 11 139 1.6 4.8 0.00 0.00 0.00 67 1012.7
20180220235020 11 129 3.2 4.8 0.00 0.00 0.00 68 1012.7
20180220234818 11 77 0.0 8.0 0.00 0.00 0.00 68 1012.7
20180220234617 11 85 1.6 8.0 0.00 0.00 0.00 68 1012.8
20180220234415 11 11 0.0 6.4 0.00 0.00 0.00 68 1012.8
20180220234214 11 113 3.2 6.4 0.00 0.00 0.00 68 1012.7
20180220234012 11 181 6.4 6.4 0.00 0.00 0.00 68 1012.7
20180220233811 11 185 1.6 6.4 0.00 0.00 0.00 68 1012.7
20180220233609 11 92 3.2 6.4 0.00 0.00 0.00 68 1012.7
20180220233407 11 84 3.2 6.4 0.00 0.00 0.00 68 1012.7
20180220233206 11 99 4.8 6.4 0.00 0.00 0.00 68 1012.7
20180220233005 11 108 3.2 6.4 0.00 0.00 0.00 68 1012.8
20180220232803 11 120 0.0 6.4 0.00 0.00 0.00 68 1012.8
20180220232601 11 90 0.0 6.4 0.00 0.00 0.00 68 1012.8
20180220232359 11 61 4.8 6.4 0.00 0.00 0.00 67 1012.8
20180220232158 11 125 0.0 6.4 0.00 0.00 0.00 67 1012.7
20180220231956 11 87 0.0 6.4 0.00 0.00 0.00 67 1012.8
20180220231755 11 94 3.2 1.6 0.00 0.00 0.00 67 1012.8
20180220231553 12 91 0.0 1.6 0.00 0.00 0.00 67 1012.8
20180220231352 11 222 0.0 3.2 0.00 0.00 0.00 67 1012.8
20180220231150 12 142 0.0 3.2 0.00 0.00 0.00 67 1012.8
20180220230949 11 220 0.0 4.8 0.00 0.00 0.00 67 1012.8
20180220230747 12 106 0.0 4.8 0.00 0.00 0.00 67 1012.8
20180220230546 11 251 0.0 4.8 0.00 0.00 0.00 67 1012.8
20180220230344 12 184 0.0 4.8 0.00 0.00 0.00 67 1012.8